GONETS-M 20 (47227 NORAD) Tracking and Keplerian Element Data

This shows tracking and keplerian element data for the satellite.

Feedback or suggestion? Click here.




ElementValue
Catalog47227
NameGONETS-M 20
Epoch Orbit610
Epoch Day21.17452158
Epoch Year2021
RAAN88.8017
Inclination82.5044
Eccentricity0.0021309
Argument of Perigee164.0919
Mean Anonmoly196.084
Mean Motion12.42882404
Decay Rate2.4E-07
L11 47227U 20091A 21021.17452158 .00000024 00000-0 10000-3 0 9993
L22 47227 82.5044 88.8017 0021309 164.0919 196.0840 12.42882404 6104

Live tracking and technical data element details for GONETS-M 20 (NORAD 47227). GONETS-M 20 can be tracked NOW for your location showing map with azimuth and elevation plus other details from your city location.

Track the satellite on the map from your city or location and see movement details for azimuth, elevation, latitude, longitude, range, height, and movement on the map or in text.







IsCatalogInMostPopularTable: catalog: 47227, numindb: 22
Update: records affected: 1



GetName: 47227 GONETS-M 20

Hit Count: updated at: Sat, 23 Jan 2021 16:57:17 GMT